Find Starlink 37071

NORAD ID: 68190 Int'l Des: 2026-050 Owner: SPXS Country: US Constellation: starlink operational
LEOCIRCULAR

当前视图

正在加载3D地球...

About Starlink 37071

Starlink 37071 (NORAD 68190) is a starlink constellation satellite (v2 mini) launched Mar 14, 2026 by SPXS of US. It operates in LEO, CIRCULAR orbit with a mass of 575.00 kg.

关于 Starlink 37071

正在加载描述...

即将过境

Passes for default location (London). Set your location on the main map for personalized predictions.

高度历史

Loading altitude history...

两行轨道根数

1 68190U 26050Z 26166.31802821 .00019045 00000-0 57384-3 0 9992
2 68190 53.1569 172.3321 0001294 43.7561 316.3544 15.34373210 15647
Epoch: Jun 15, 2026 • Age: 7 hours

当前状态

高度 468.6 km
速度 7.64 km/s
星下点 52.60°N, 155.41°E
发射日期 Mar 14, 2026
运行时间 0.2 years
类型 internet

技术详情

分类 Payload
质量 575.00 kg
干质量 530.00 kg
总质量 575.00 kg
长度 0.30 m
直径 4.10 m
跨度 29.00 m
形状 Box + pan
制造商 SPXS
平台类型 Starlink V2MO
阶段状态 In Orbit
所有者/国家 SPXS/US

Most Searched